Regional Weather Roundup
Issued by NWS

Home | Current Version | Previous Version | Text Only | Print | Product List | Glossary Off
Versions: 1 2 3 4 5 6 7 8 9 10 11 12 13 14 15 16 17 18 19 20 21 22 23 24 25 26 27 28 29 30 31 32 33 34 35 36 37 38 39 40 41 42 43 44 45 46 47 48 49 50

000
ASUS43 KLOT 190112
RWRIL

ILLINOIS REGIONAL WEATHER ROUNDUP
NATIONAL WEATHER SERVICE CHICAGO/ROMEOVILLE IL
700 PM CST SAT FEB 18 2017

NOTE: "FAIR" INDICATES FEW OR NO CLOUDS BELOW 12,000 FEET WITH NO
SIGNIFICANT WEATHER AND/OR OBSTRUCTIONS TO VISIBILITY.

* THESE STATIONS ARE NOT UNDER NWS QUALITY CONTROL. THEY ALSO MAY NOT
  REPORT WEATHER SUCH AS PRECIPITATION OR FOG.

ILZ001-002-007-009-015-016-024-190200-
NORTHWEST ILLINOIS

CITY           SKY/WX    TMP DP  RH WIND       PRES   REMARKS
MOLINE         CLEAR     47  34  60 CALM      29.79R
STERLING*      CLEAR     52  39  61 W5        29.80R
SAVANNA*       CLEAR     51  38  62 NW3       29.80R
$$

ILZ003-004-008-010-011-017-018-190200-
NORTH CENTRAL ILLINOIS

CITY           SKY/WX    TMP DP  RH WIND       PRES   REMARKS
ROCKFORD       CLEAR     51  37  58 CALM      29.81R
FREEPORT*      CLEAR     47  37  69 NW5       29.81R
ROCHELLE*      CLEAR     46  39  77 CALM      29.80R
DE KALB*       CLEAR     51  40  66 NW6       29.80R
PERU*          CLEAR     54  35  49 NW6       29.80R
$$

ILZ005-006-012>014-019>023-190200-
NORTHEAST ILLINOIS

CITY           SKY/WX    TMP DP  RH WIND       PRES   REMARKS
CHICAGO-OHARE  CLEAR     54  36  50 VRB5      29.77R
CHICAGO-MIDWAY CLEAR     56  35  45 E5        29.78R
AURORA         CLEAR     47  37  68 W7        29.79R
LANSING*       CLEAR     48  42  81 SW3       29.77R
JOLIET*        CLEAR     51  37  57 CALM      29.78R
WAUKEGAN       CLEAR     43  35  73 CALM      29.78R
DUPAGE AIRPORT CLEAR     52  35  52 NW3       29.78R
KANKAKEE*      CLEAR     50  39  67 SW6       29.79R
WHEELING       CLEAR     49  35  58 CALM      29.79R
MORRIS*        CLEAR     48  35  60 CALM      29.78R
ROMEOVILLE*    CLEAR     55  39  56 W5        29.78R
NORTHERLY ISL    N/A     45  33  63 CALM        N/A
$$

LMZ740>746-190200-
SOUTHERN LAKE MICHIGAN

STATION/POSITION SKY/WX   TEMP    WIND        PRES    VSBY  WAVE
                          AIR SEA DIR/SP/G                  HT/PER
                          (F)     (DEG/KT/KT) (MB)    (MI)  (FT/S)
HARRISON CRIB              49      90/  2/  3   N/A
BURNHAM HARBOR             46      CALM  /  3   N/A
CALUMET HARBOR             47     350/  1/  3 1007.8R
BURNS HARBOR               43      80/  8/ 11 1008.8R
MICHIGAN CITY              53      40/  5/  5   N/A
$$

ILZ025>027-034>036-040-047-049-050-058-095>099-190200-
WEST-CENTRAL ILLINOIS

CITY           SKY/WX    TMP DP  RH WIND       PRES   REMARKS
QUINCY         CLEAR     59  39  47 CALM      29.81R
GALESBURG*     CLEAR     50  35  57 CALM      29.80R
MACOMB*        CLEAR     54  39  57 CALM      29.83R
JACKSONVILLE*  CLEAR     54  41  62 S7        29.82R
PITTSFIELD*    CLEAR     54  43  66 CALM      29.83R
$$

ILZ028>032-037-038-041>044-048-051>054-059>061-190200-
CENTRAL ILLINOIS

CITY           SKY/WX    TMP DP  RH WIND       PRES   REMARKS
PONTIAC        CLEAR     54  41  62 CALM      29.80R
BLOOMINGTON    CLEAR     54  38  54 SW5       29.81R
DECATUR        CLEAR     54  45  71 SW14      29.82R
PEORIA         CLEAR     55  40  56 W3        29.81R
LACON*         CLEAR     50  37  59 CALM      29.79R
LINCOLN*       CLEAR     53  42  64 CALM      29.80R
SPRINGFIELD    CLEAR     57  43  59 SW7       29.82R
TAYLORVILLE    CLEAR     52  47  84 S12       29.83R
$$

ILZ033-039-045-046-055>057-062-063-190200-
EAST-CENTRAL ILLINOIS

CITY           SKY/WX    TMP DP  RH WIND       PRES   REMARKS
CHAMPAIGN      CLEAR     53  42  66 SW10      29.81R
RANTOUL*       CLEAR     55  44  68 SW9       29.80R
MATTOON        CLEAR     52  49  89 SW8       29.83R
PARIS*         CLEAR     50  46  84 SW9       29.84R
$$

ILZ079-100>102-190200-
SOUTHWEST ILLINOIS

CITY           SKY/WX    TMP DP  RH WIND       PRES   REMARKS
ALTON          PTCLDY    50  48  93 S7        29.84R
BELLEVILLE     CLEAR     49  49 100 SE3       29.84R
CAHOKIA*       CLEAR     52  48  86 S6        29.84R
SPARTA*        CLOUDY    51  50  96 S7        29.88R
$$

ILZ064>066-069>071-074>076-080>082-084>086-088>090-092>094-190200-
SOUTH-CENTRAL ILLINOIS

CITY           SKY/WX    TMP DP  RH WIND       PRES   REMARKS
CARBONDALE     CLOUDY    50  50 100 S8        29.89R
CAIRO*           N/A    N/A N/A N/A SE3       29.91R
EFFINGHAM*     CLEAR     52  49  91 S5        29.87S
MARION         CLOUDY    52  50  93 S6        29.90S
MT. VERNON     CLOUDY    51  49  92 S10       29.88R
CENTRALIA*     CLOUDY    52  51  97 S8        29.86R
SALEM*         CLOUDY    53  50  87 S7        29.86R
METROPOLIS*    DRIZZLE   50  49  97 CALM      29.92S
$$

ILZ067-068-072-073-078-083-087-091-190200-
SOUTHEAST ILLINOIS

CITY           SKY/WX    TMP DP  RH WIND       PRES   REMARKS
LAWRENCEVILLE  CLOUDY    52  46  80 SW10      29.88R
FLORA*         CLOUDY    52  49  89 SW9       29.88R
FAIRFIELD*     CLOUDY    51  50  94 S5        29.87S
HARRISBURG*    CLOUDY    50  50  99 S6        29.90S
ROBINSON*      CLOUDY    51  46  82 SW9       29.87R
CARMI*         CLOUDY    50  49  95 S7        29.89S
$$

ABBREVIATIONS USED IN REMARKS
   TC - TEMPERATURE IN CELSIUS
  WCI - WIND CHILL INDEX
   HX - HEAT INDEX
  VSB - VISIBILITY
$$





USA.gov is the U.S. government's official web portal to all federal, state and local government web resources and services.